KUIPER-00199

Last updated on Sun Mar 15 2026 00:02:06 GMT+0000 (Coordinated Universal Time)

1 67771U 26030H 26073.60345842 .00046021 00000+0 13518-2 0 9991 2 67771 51.8824 195.7483 0011156 76.5004 283.7224 15.34618091 5844
UTC large
Height (km)
Speed (km/s)
/
Latitude / Longitude
Inclination (degrees)
Orbital Period (minutes)
Azimuth
Elevation
Range (km)
Doppler Factor

Next 0 passes for location: London (51.5072 / 0.1276)

Sorry there are no passes over London.